Regional Weather Roundup
Issued by NWS Bismarck, ND

Home | Current Version | Previous Version | Text Only | Print | Product List | Glossary On
Versions: 1 2 3 4 5 6 7 8 9 10 11 12 13 14 15 16 17 18 19 20 21 22 23 24 25 26 27 28 29 30 31 32 33 34 35 36 37 38 39 40 41 42 43 44 45 46 47 48 49 50
000
ASUS43 KBIS 221302
RWRBIS

NWR BROADCAST TEXT
NATIONAL WEATHER SERVICE BISMARCK ND
700 AM CST WED NOV 22 2017

NOTE: "FAIR" INDICATES FEW OR NO CLOUDS BELOW 12,000 FEET WITH NO
SIGNIFICANT WEATHER AND/OR OBSTRUCTIONS TO VISIBILITY.


CITY           SKY/WX    TMP DP  RH WIND       PRES   REMARKS
WILLISTON      CLOUDY    26  15  63 S5        29.86F
MINOT          CLOUDY    20  11  68 SE6       29.92F WCI  12
MINOT AFB      FLURRIES  19  11  70 SE7       29.91F WCI  10
BISMARCK       CLOUDY    22  15  75 SE7       30.02F WCI  13
DICKINSON      CLOUDY    32  21  64 S15       29.88F
GARRISON         N/A     21  14  74 S10       29.92F WCI  10
HETTINGER ARPT CLOUDY    28  18  66 S7        29.96F
JAMESTOWN      CLOUDY    13   8  81 S9        30.09F WCI   1
CARRINGTON     FAIR      16  12  86 S8        30.07F WCI   5
HAZEN          CLOUDY    25  14  63 S13       29.92F WCI  13
LINTON           N/A     14   5  67 SE8       30.08S WCI   3
MANDAN         CLOUDY    18   7  62 S12       29.98F WCI   5
OAKES            N/A     10   7  85 S12       30.14F WCI  -4
RUGBY          CLOUDY    16   9  73 S12       29.98F WCI   3
STANLEY        FLURRIES  21  18  86 S9        29.88F WCI  11
TIOGA          CLOUDY    21  16  79 S6        29.87F WCI  14
WATFORD CITY   PTSUNNY   23  14  68 SE6       29.86F WCI  16
$$

CITY           SKY/WX    TMP DP  RH WIND       PRES   REMARKS
GRAND FORKS    CLOUDY    15  10  80 S14       30.15F WCI   0
GRAND FORKS AF CLOUDY    14   8  76 SW12      30.13F WCI   1
DEVILS LAKE    CLOUDY    15   9  76 S9        30.05F WCI   3
FARGO          PTCLDY    13   8  81 S12       30.21F WCI  -1
CANDO          CLOUDY    14  10  85 S10       30.03F WCI   1
CAVALIER       CLOUDY    12   7  79 S12       30.10F WCI  -2
GRAFTON        CLOUDY    12   9  85 S9G15     30.15F WCI   0
GWINNER          N/A     12   7  79 S9        30.17F WCI   0
LANGDON        FAIR      14  10  85 SW18      30.02F WCI  -3
ROLLA          CLOUDY    12   7  79 S12G17    29.96F WCI  -2
WALHALLA       FAIR      14   9  79 S8        30.09F WCI   3
$$

CITY           SKY/WX    TMP DP  RH WIND       PRES   REMARKS
ABERDEEN       PTCLDY    12   8  84 S10       30.18F WCI  -1
MOBRIDGE       CLOUDY    23  15  71 S16       30.03F WCI  10
BUFFALO          N/A     27  20  75 SE5       29.88F
RAPID CITY     CLOUDY    32  23  69 SW5       30.04S
GLASGOW        CLOUDY    28  23  81 E8        29.80F WCI  20
SIDNEY         CLOUDY    28  22  78 S10       29.85F WCI  19
WOLF POINT     CLOUDY    19  11  70 CALM      29.84F
GLENDIVE       CLOUDY    32  26  78 S14       29.88F
MILES CITY     CLOUDY    31  28  89 S9        29.93S
BAKER          CLOUDY    36  29  75 W3        29.93F
$$

CITY           SKY/WX    TMP DP  RH WIND       PRES   REMARKS
BILLINGS       CLOUDY    47  34  60 SW20      30.04S
GREAT FALLS    CLOUDY    55  38  52 SW23G32   29.97R
REGINA         FRZ RAIN  14  12  92 SE12      29.81F WCI   0
$$





USA.gov is the U.S. government's official web portal to all federal, state and local government web resources and services.